Wind_Speed
4 3 1 2 4 7 8 8 9 8 7 8 8 9 9 9 9 10 10 11 10 10 10 9 9 9 9 9 8 8 8 8 7 7 6 6 7 7 7 8 9 9 9
4 3 2 2 4 6 8 8 8 8 8 8 9 9 10 10 9 10 11 11 10 10 9 9 9 9 9 9 8 8 7 7 6 6 5 6 6 7 7 8 8 8 8
5 3 2 3 3 5 6 7 8 8 8 9 10 10 10 10 9 9 10 10 10 9 8 8 8 8 8 9 8 7 6 6 5 5 5 6 7 7 7 7 7 7 7
6 4 3 4 3 5 6 7 8 9 9 10 11 10 10 10 10 10 10 10 10 9 8 8 9 8 9 9 8 7 6 5 5 5 6 6 7 7 7 7 7 6 6
7 6 4 3 3 5 6 7 8 9 10 10 11 11 11 11 10 11 10 10 9 9 8 8 9 8 8 8 7 7 6 5 5 5 6 6 6 7 7 7 7 6 6
8 7 5 4 4 5 6 7 8 9 10 10 11 12 11 11 10 10 9 9 9 8 8 9 9 8 8 7 7 6 6 5 5 5 5 5 6 6 6 6 6 5 5
9 7 6 4 5 6 7 7 9 9 9 10 10 11 11 9 9 9 9 8 8 8 8 8 8 7 7 7 6 6 6 5 6 5 5 5 5 5 5 4 4 4 4
9 8 8 7 6 7 7 8 9 9 10 10 10 11 11 10 9 9 9 9 8 8 7 8 7 7 7 6 6 6 6 5 5 5 5 4 5 5 4 4 3 3 3
9 7 7 7 7 7 7 8 9 9 10 10 10 10 10 10 9 9 9 9 7 7 7 7 7 7 6 6 6 6 6 6 5 5 5 4 5 4 4 3 2 2 1
10 8 6 7 8 8 7 8 9 9 10 10 10 10 10 10 9 9 9 8 7 6 6 6 7 7 7 7 7 6 5 6 6 5 5 4 4 4 3 2 1 1 0
11 9 8 8 8 8 8 8 9 10 10 10 10 11 10 10 9 9 8 8 7 7 6 5 6 7 8 7 7 6 6 6 6 6 5 4 4 3 2 1 1 1 1
13 11 9 9 8 9 9 8 9 10 10 10 10 10 10 10 9 9 9 8 7 7 6 5 5 6 8 7 7 6 6 6 5 6 5 4 3 3 3 2 2 2 2
13 12 11 9 9 9 9 9 9 9 9 10 10 10 9 10 9 8 8 7 7 6 6 5 5 5 5 5 6 5 5 5 4 4 4 4 4 4 4 3 3 3 3
13 13 12 11 10 9 9 8 9 9 9 9 9 10 10 10 9 8 8 8 7 6 5 5 4 4 4 4 4 4 4 5 4 3 3 3 3 4 4 4 3 3 3
12 12 12 11 11 10 8 8 8 8 8 9 9 9 10 10 9 8 7 7 7 6 5 5 5 4 5 5 5 5 5 5 5 4 3 2 2 2 2 3 3 3 2
11 11 10 10 10 9 8 8 8 8 7 8 8 8 9 9 9 8 7 7 7 6 5 5 4 4 5 6 6 6 5 5 5 4 3 3 2 2 2 3 3 3 3
11 10 10 10 10 9 8 8 7 7 6 6 7 8 8 8 8 8 7 7 7 6 5 5 5 5 5 6 5 5 5 5 5 4 4 3 3 3 3 3 3 4 4
10 9 9 9 9 9 7 7 7 6 5 5 5 6 7 8 8 7 7 7 7 6 6 5 5 5 5 5 5 5 5 5 5 4 4 4 4 4 3 3 3 4 4
9 8 8 8 7 7 7 6 5 5 5 4 4 5 6 7 7 7 6 5 6 6 6 6 6 5 5 6 6 5 5 5 4 4 4 4 4 4 4 3 3 4 4
9 8 8 7 6 5 5 5 5 3 3 4 4 4 4 5 6 6 6 5 5 5 5 6 6 5 5 6 6 6 5 5 4 4 4 5 5 4 5 5 5 5 6
8 8 7 6 6 5 4 4 4 3 3 3 3 3 4 5 6 6 5 5 5 5 5 6 7 7 6 7 7 7 6 6 5 5 6 6 6 6 6 6 7 7 7
8 7 7 6 5 4 4 3 3 2 2 2 2 3 3 4 5 6 5 5 5 6 6 6 7 7 7 7 7 7 7 6 6 6 7 7 7 7 7 7 8 8 8
8 7 6 6 5 4 4 3 3 2 0 1 2 2 3 4 5 6 5 5 6 6 6 6 6 7 7 7 8 8 8 7 8 8 9 9 9 9 9 9 9 9 10
7 7 6 5 6 5 4 4 3 3 3 2 2 3 3 4 5 5 5 6 6 7 7 7 7 7 7 7 8 8 9 8 9 9 9 10 10 10 10 10 10 11 12
7 6 5 5 5 5 5 4 3 2 2 3 4 4 4 4 5 5 4 4 5 6 7 8 8 8 8 9 9 9 10 10 10 10 10 11 11 11 12 12 13 13 13
7 7 6 5 6 5 5 5 4 4 3 3 4 4 5 6 5 5 4 5 6 7 7 8 9 9 9 9 9 10 11 11 12 12 12 13 13 14 14 14 14 15 15
Wind_Direction
20 24 52 140 145 157 164 170 176 177 175 166 167 168 163 159 163 166 164 160 158 157 154 152 148 142 142 142 140 138 135 128 123 119 116 111 111 110 106 105 98 100 101
32 38 72 129 148 164 170 171 177 178 173 170 167 165 163 165 165 164 166 166 162 161 160 156 152 145 143 144 142 141 138 131 124 124 119 113 111 110 105 100 97 97 96
33 43 92 133 154 169 171 172 174 174 172 170 167 169 166 166 170 168 169 169 166 166 164 157 154 148 146 148 148 146 142 137 136 131 123 113 110 114 106 102 102 100 98
44 56 93 123 160 177 173 173 172 173 171 171 169 169 167 166 169 168 168 169 168 167 166 160 153 149 147 149 150 151 147 140 141 136 122 115 114 117 114 109 107 105 101
48 58 82 113 149 164 169 171 171 170 169 170 169 168 168 168 166 161 163 170 170 166 162 161 155 150 152 151 151 152 148 140 135 130 122 118 121 123 122 115 110 106 103
55 60 78 121 140 156 161 165 169 169 171 172 170 170 168 165 161 159 162 166 169 165 160 160 157 155 155 153 150 150 148 141 134 130 119 121 128 125 124 118 112 108 104
58 71 86 110 126 138 151 159 164 169 170 173 171 170 168 162 158 156 158 159 165 164 162 159 155 159 158 155 151 150 150 151 145 135 133 129 134 135 134 129 115 111 106
64 83 92 94 116 133 143 151 159 164 167 170 171 168 167 165 160 159 158 154 157 160 165 167 167 167 168 166 162 160 164 163 151 145 142 135 140 143 143 138 123 114 113
65 84 96 100 116 127 137 151 155 160 164 164 165 165 163 164 161 160 162 159 161 168 173 171 173 176 175 175 168 167 174 181 169 160 155 148 143 150 154 150 136 123 122
64 72 88 100 107 116 134 150 153 156 159 160 162 162 162 164 163 162 163 164 162 166 170 173 178 177 176 175 167 167 179 188 181 172 172 174 167 162 164 178 188 186 176
68 74 87 89 98 103 119 141 147 152 158 160 162 164 165 165 166 167 165 166 166 164 165 172 176 177 174 172 171 176 184 188 184 185 189 188 180 184 190 206 217 238 287
69 77 88 89 93 97 107 126 141 151 155 160 164 166 167 166 169 172 172 172 173 170 174 177 172 182 178 173 173 179 185 187 189 192 196 201 201 210 223 232 234 256 277
67 73 82 87 88 91 95 111 134 146 150 155 164 163 163 165 167 171 173 173 171 170 172 173 172 181 181 175 172 173 181 185 177 187 205 211 219 229 235 246 251 262 271
65 68 74 77 82 90 92 101 117 135 145 149 158 163 164 164 165 168 168 172 177 178 182 181 182 175 183 181 179 174 172 174 175 178 189 209 228 242 249 260 266 268 266
62 67 71 74 79 86 91 101 114 132 141 142 149 157 162 167 169 172 175 180 179 186 185 178 185 185 192 188 181 176 171 179 189 192 208 215 235 247 256 274 279 278 274
57 62 67 70 74 81 89 101 112 128 140 141 146 154 161 165 164 167 176 177 176 184 186 185 191 188 193 195 191 189 189 187 189 200 215 223 238 273 279 281 287 287 282
53 58 62 69 73 79 85 94 104 112 129 145 151 156 162 164 168 169 171 177 174 172 178 186 193 191 190 191 192 194 199 197 208 223 237 248 261 272 270 275 276 276 275
49 57 61 66 73 78 85 89 96 103 110 129 148 155 164 170 170 170 176 178 181 183 187 186 193 191 190 189 193 204 208 210 220 240 254 263 272 263 269 278 268 273 276
42 50 56 60 64 68 71 83 89 98 110 121 139 156 167 172 171 172 179 185 189 191 192 193 193 196 199 195 202 213 213 218 230 246 261 269 275 267 270 276 268 270 277
33 39 43 45 47 52 65 68 75 86 115 127 140 150 169 177 176 182 187 188 193 198 198 201 201 201 204 207 216 222 228 234 237 247 257 267 278 277 266 266 268 271 277
23 25 28 29 36 42 54 58 59 73 101 127 149 161 178 183 182 185 190 195 198 205 214 218 217 213 216 223 229 231 238 242 245 256 262 268 279 278 273 273 270 275 280
17 18 20 18 17 23 35 33 29 42 74 99 144 173 192 193 194 202 211 210 210 213 221 226 220 218 222 230 234 236 242 246 249 259 262 263 265 269 273 275 278 282 282
7 7 5 3 4 11 13 354 339 339 320 154 170 185 201 198 205 207 214 220 218 222 228 224 226 227 226 231 237 244 255 252 254 260 263 262 263 266 270 274 276 280 284
354 356 356 358 355 349 342 337 320 295 270 240 225 227 228 229 228 223 225 228 228 229 228 232 235 237 240 244 245 248 254 257 259 263 263 265 268 273 275 274 272 275 278
337 339 338 338 341 339 332 320 311 303 280 255 247 246 251 248 246 242 233 225 226 232 235 240 239 248 251 254 254 255 257 260 265 267 267 270 272 272 275 276 274 274 277
315 320 321 320 318 318 317 317 309 294 281 269 260 262 262 257 252 249 249 247 246 244 244 246 249 253 256 258 259 262 266 267 270 269 270 274 274 278 279 278 280 278 278
Height
5878 5876 5876 5876 5876 5877 5880 5882 5884 5885 5886 5888 5889 5890 5891 5892 5893 5894 5895 5896 5897 5898 5898 5899 5900 5901 5901 5902 5903 5903 5903 5903 5903 5903 5903 5903 5903 5903 5903 5903 5903 5903 5903
5878 5877 5876 5876 5877 5878 5880 5882 5884 5886 5887 5888 5889 5891 5892 5893 5894 5895 5896 5897 5898 5899 5899 5900 5901 5902 5902 5903 5904 5904 5904 5904 5904 5904 5904 5904 5904 5904 5904 5904 5904 5904 5904
5878 5877 5876 5877 5878 5879 5881 5882 5884 5885 5887 5888 5889 5891 5892 5893 5894 5895 5896 5897 5898 5899 5900 5900 5901 5902 5903 5903 5904 5904 5905 5905 5905 5905 5905 5905 5905 5905 5905 5905 5906 5905 5905
5878 5876 5876 5877 5878 5879 5881 5882 5884 5885 5886 5888 5889 5891 5892 5893 5894 5895 5896 5897 5899 5900 5901 5901 5902 5903 5904 5904 5905 5905 5905 5905 5906 5906 5906 5906 5906 5906 5906 5906 5907 5907 5906
5878 5877 5877 5877 5878 5879 5881 5882 5883 5885 5886 5888 5889 5891 5892 5894 5894 5895 5897 5898 5899 5900 5901 5902 5903 5904 5904 5905 5905 5906 5906 5906 5906 5906 5906 5907 5907 5907 5907 5907 5908 5908 5908
5878 5878 5877 5877 5878 5879 5881 5882 5883 5885 5887 5888 5890 5891 5893 5894 5895 5896 5897 5898 5899 5900 5901 5902 5903 5904 5905 5905 5906 5906 5907 5907 5907 5907 5907 5907 5908 5908 5908 5908 5908 5908 5908
5879 5878 5877 5877 5879 5880 5881 5882 5883 5885 5887 5889 5890 5892 5893 5895 5896 5897 5898 5898 5899 5900 5902 5903 5904 5905 5905 5906 5906 5907 5907 5907 5908 5908 5908 5908 5908 5909 5909 5909 5909 5909 5909
5880 5879 5879 5878 5879 5880 5881 5882 5884 5886 5887 5889 5891 5892 5894 5895 5896 5897 5898 5899 5900 5901 5902 5903 5904 5905 5906 5906 5907 5907 5908 5908 5908 5908 5908 5909 5909 5909 5909 5909 5909 5909 5909
5881 5881 5880 5880 5880 5880 5881 5882 5884 5886 5888 5889 5891 5893 5894 5896 5897 5898 5899 5900 5901 5902 5902 5903 5904 5905 5906 5906 5907 5907 5908 5908 5908 5908 5909 5909 5909 5910 5910 5910 5910 5909 5910
5882 5882 5882 5882 5881 5881 5882 5883 5884 5886 5888 5890 5892 5893 5895 5896 5897 5898 5899 5901 5901 5902 5903 5903 5904 5905 5906 5906 5907 5907 5907 5907 5908 5908 5909 5909 5909 5910 5910 5910 5910 5910 5909
5884 5883 5883 5883 5883 5883 5883 5884 5885 5886 5888 5890 5892 5893 5895 5896 5897 5899 5900 5901 5902 5902 5903 5903 5904 5905 5905 5906 5906 5907 5907 5907 5908 5908 5909 5909 5909 5910 5910 5910 5909 5909 5909
5885 5885 5884 5884 5884 5884 5884 5885 5886 5887 5889 5890 5892 5894 5895 5896 5898 5899 5900 5901 5901 5902 5903 5904 5904 5905 5905 5905 5906 5906 5907 5908 5908 5909 5909 5909 5910 5910 5909 5909 5909 5909 5909
5888 5887 5886 5885 5885 5885 5885 5886 5887 5888 5889 5891 5892 5894 5895 5897 5898 5899 5900 5901 5901 5902 5903 5904 5904 5905 5905 5905 5906 5906 5907 5908 5908 5908 5909 5909 5909 5909 5909 5909 5908 5908 5908
5889 5889 5888 5887 5887 5887 5887 5887 5888 5889 5890 5891 5892 5894 5895 5896 5897 5899 5900 5901 5902 5903 5904 5904 5904 5905 5905 5906 5906 5906 5907 5908 5908 5908 5908 5908 5908 5908 5908 5908 5907 5907 5907
5891 5890 5890 5889 5888 5888 5888 5888 5889 5889 5890 5892 5893 5894 5895 5896 5898 5899 5900 5901 5902 5903 5904 5904 5904 5905 5906 5906 5906 5906 5907 5907 5908 5908 5908 5908 5908 5908 5907 5907 5907 5906 5906
5893 5892 5891 5890 5890 5889 5889 5890 5889 5890 5891 5892 5893 5894 5896 5897 5898 5899 5900 5901 5902 5903 5903 5904 5904 5905 5905 5906 5906 5907 5907 5907 5908 5908 5908 5908 5907 5907 5906 5906 5906 5906 5905
5894 5893 5892 5892 5891 5891 5891 5891 5891 5891 5892 5893 5894 5895 5896 5897 5898 5899 5900 5901 5902 5902 5903 5904 5904 5904 5905 5905 5906 5906 5906 5907 5907 5907 5907 5907 5906 5906 5906 5905 5905 5905 5904
5896 5895 5894 5893 5893 5892 5892 5892 5892 5893 5893 5893 5894 5895 5896 5897 5898 5899 5900 5901 5902 5902 5903 5903 5904 5904 5904 5905 5905 5906 5906 5906 5906 5906 5906 5906 5905 5905 5905 5904 5904 5903 5903
5897 5896 5896 5895 5894 5894 5893 5893 5893 5893 5893 5893 5894 5895 5895 5896 5898 5899 5900 5901 5901 5902 5902 5903 5903 5904 5904 5904 5904 5905 5905 5905 5905 5905 5905 5905 5904 5904 5903 5903 5902 5902 5902
5898 5897 5896 5896 5895 5894 5894 5894 5894 5893 5893 5893 5894 5894 5895 5896 5897 5898 5899 5900 5900 5901 5901 5902 5902 5903 5903 5903 5903 5903 5904 5904 5904 5904 5904 5903 5903 5902 5902 5901 5901 5901 5901
5899 5898 5897 5896 5896 5895 5894 5894 5894 5894 5893 5893 5894 5894 5895 5896 5896 5897 5898 5899 5899 5900 5900 5900 5901 5901 5901 5902 5902 5902 5902 5902 5902 5902 5902 5902 5901 5901 5900 5900 5899 5899 5899
5899 5898 5897 5896 5896 5895 5895 5895 5894 5894 5894 5894 5894 5894 5895 5895 5896 5897 5897 5897 5898 5898 5899 5899 5899 5899 5899 5900 5900 5900 5901 5901 5900 5901 5900 5900 5900 5899 5899 5898 5898 5897 5897
5899 5898 5897 5896 5896 5895 5895 5894 5894 5894 5894 5894 5894 5894 5894 5894 5895 5895 5895 5895 5896 5897 5897 5897 5898 5898 5898 5898 5898 5899 5899 5898 5899 5899 5898 5898 5898 5897 5897 5896 5895 5895 5894
5899 5898 5897 5896 5896 5895 5894 5894 5894 5893 5893 5893 5893 5893 5893 5893 5893 5893 5893 5893 5894 5895 5895 5895 5896 5896 5896 5896 5896 5896 5897 5896 5896 5896 5896 5896 5895 5895 5894 5893 5893 5892 5891
5898 5897 5896 5896 5895 5894 5894 5893 5893 5892 5891 5891 5891 5891 5892 5892 5892 5891 5891 5891 5892 5892 5893 5893 5893 5893 5893 5893 5893 5893 5893 5893 5893 5894 5893 5893 5892 5892 5891 5890 5889 5889 5888
5896 5895 5895 5895 5894 5893 5892 5892 5891 5891 5890 5890 5889 5890 5890 5890 5890 5890 5890 5890 5890 5890 5890 5890 5890 5890 5890 5890 5890 5890 5890 5890 5890 5889 5890 5889 5889 5888 5888 5887 5886 5885 5884